Location: Monrovia
(34.7865°N, 86.7139°W)
Time: 20:53:10
(UTC+00:00)

DELTA 2 R/B (1) - Pass Details

Date: 14 July 2020
Orbit: 790 x 802 km, 39.6° (Epoch: 08 August)

Event Time Altitude Azimuth Distance (km) Brightness Sun altitude
Rises 02:44:52 0° 283° (WNW) 3,282 7.8 -18.1°
Reaches altitude 10° 02:47:25 10° 288° (WNW) 2,354 7.0 -18.5°
Maximum altitude 02:52:50 53° 5° (N) 972 4.2 -19.3°
Enters shadow 02:57:08 16° 78° (ENE) 1,958 5.3 -19.9°
